Theta_e
313 313 313 313 312 312 312 312 312 313 313 313 313 313 314 314 315 312 307 315 319 324 316 317 319 314 316 315 315 313 303 301 303 304 307 313 308 312 314 312 314 315 317 333 343
312 312 312 312 312 312 311 312 312 312 313 313 313 313 313 313 310 306 316 325 327 320 315 310 309 315 310 312 313 308 303 303 309 310 309 311 310 310 309 309 310 313 318 331 340
312 311 311 311 311 311 311 311 311 312 312 312 312 312 312 312 304 308 324 325 325 321 313 313 311 313 309 311 312 308 303 308 309 311 312 310 310 311 309 308 310 310 314 325 335
311 311 311 311 311 311 311 311 311 312 312 312 312 311 312 309 293 319 324 322 319 318 314 312 310 307 307 306 311 304 307 308 310 312 310 308 311 309 310 311 314 314 316 320 327
310 311 311 310 310 310 311 311 311 311 311 311 311 311 309 302 301 311 323 321 322 318 313 311 308 307 304 307 309 307 308 309 310 310 310 309 308 308 310 313 315 314 314 314 323
310 310 310 310 310 311 312 312 312 312 312 312 312 312 305 294 309 310 310 313 317 315 316 314 309 310 307 308 306 309 309 308 309 308 309 306 307 308 310 313 313 313 313 314 315
311 310 310 310 311 312 312 311 311 312 312 313 313 310 302 300 310 311 310 308 310 310 310 317 315 309 309 307 310 309 305 307 307 307 307 308 303 305 310 312 310 310 312 313 314
311 311 310 311 312 312 312 312 312 312 313 314 313 309 298 311 313 310 311 308 310 312 310 312 317 311 308 310 306 303 304 300 306 306 307 306 300 307 311 310 309 310 311 313 314
311 310 311 310 311 312 312 311 312 313 313 314 311 305 299 312 306 309 310 305 306 308 311 313 310 309 308 302 299 301 296 298 302 308 306 304 301 307 312 310 309 310 311 312 313
311 310 310 311 311 311 310 310 313 314 311 312 310 300 305 301 304 307 308 309 306 304 302 307 307 302 303 300 293 296 297 300 299 305 305 303 302 308 310 310 310 311 311 311 312
310 309 310 311 311 310 310 312 305 304 307 300 301 301 302 306 308 304 306 303 306 301 294 300 298 296 300 302 302 303 301 300 303 306 303 303 304 306 309 310 309 311 312 312 313
309 310 310 310 310 310 310 305 303 304 295 302 302 302 305 306 298 303 305 299 299 294 297 294 291 299 303 304 302 301 301 301 304 307 304 303 303 306 309 309 310 311 312 312 314
309 310 310 310 310 310 308 306 310 308 295 298 303 300 302 304 298 299 302 299 297 295 295 293 294 298 300 301 300 300 300 301 301 303 306 303 301 304 308 310 311 312 313 314 314
309 309 309 310 307 310 307 310 310 307 288 295 296 300 302 304 298 306 304 299 297 294 296 296 298 297 295 297 300 297 303 303 301 300 295 303 294 302 306 306 308 310 312 313 315
309 309 309 308 309 307 308 311 310 306 283 296 297 308 305 298 301 299 306 300 293 294 295 294 296 296 295 295 301 299 304 303 303 301 298 299 296 302 306 304 306 309 311 314 315
308 308 309 311 311 310 311 312 305 289 283 294 297 296 297 300 299 302 300 302 298 294 296 295 301 298 298 299 300 303 301 302 302 301 291 299 297 298 302 305 307 310 311 313 314
308 308 307 310 305 312 311 306 291 287 296 291 291 296 296 295 297 298 296 291 289 284 288 292 293 299 301 297 300 299 297 290 289 289 291 301 297 301 307 309 309 309 311 313 315
306 306 311 311 312 312 310 297 287 292 291 294 294 295 291 296 295 294 294 291 292 292 289 287 284 294 300 297 296 297 298 292 285 287 292 300 295 298 311 312 312 311 314 316 318
305 313 310 310 313 312 304 293 288 291 294 290 290 291 292 294 293 294 294 291 292 294 289 289 288 298 299 302 300 297 294 302 295 297 294 297 301 310 313 313 316 317 318 318 319
307 308 309 312 315 310 300 288 292 295 296 294 286 291 287 290 289 290 292 295 292 297 297 295 287 295 299 302 302 300 303 294 296 289 287 294 297 300 306 309 312 313 312 317 322
308 303 308 314 313 303 294 291 293 297 297 292 290 288 289 287 288 289 291 293 294 294 298 297 295 293 296 295 296 297 295 299 298 297 292 290 295 309 308 310 308 309 312 315 318
307 298 309 313 299 298 293 293 294 295 298 295 295 291 288 288 288 289 290 289 295 296 292 296 295 290 293 300 302 300 298 300 294 294 297 296 299 311 313 312 310 310 315 318 320
302 302 310 309 293 292 294 293 296 294 295 294 292 294 291 289 286 292 292 298 298 295 292 297 292 289 290 294 296 296 300 300 302 302 296 293 298 312 310 308 310 311 312 316 318
301 295 300 303 302 294 291 292 291 298 296 296 295 295 291 289 292 290 291 296 298 297 300 299 295 294 289 292 296 295 297 300 301 296 296 297 298 302 303 305 307 308 311 312 314
301 296 296 292 294 294 295 293 290 289 295 296 293 292 291 286 288 290 292 293 296 299 298 295 293 295 295 297 298 297 297 299 298 300 298 300 299 301 302 303 306 308 309 310 310
296 293 297 294 297 297 294 293 289 292 293 292 290 293 294 290 290 287 291 292 291 296 294 298 295 297 290 296 299 296 298 299 300 300 301 304 300 307 305 305 305 306 307 308 308
301 300 295 295 297 295 295 292 292 295 296 297 295 293 293 294 298 299 300 301 298 294 294 295 298 292 288 297 297 294 298 298 300 303 301 298 300 303 301 302 304 307 308 308 309
Wind_Speed
17 17 17 17 17 18 18 18 17 17 17 17 17 18 18 20 23 24 28 21 11 13 4 11 14 21 22 20 23 20 18 21 27 25 20 16 10 11 14 17 16 9 15 11 11
17 18 18 19 19 19 19 19 19 19 19 17 16 16 17 19 23 29 27 17 15 6 21 20 21 19 21 23 22 22 19 29 21 21 22 13 14 14 15 14 15 15 16 8 11
18 18 18 19 20 20 20 19 19 20 20 19 19 17 16 18 22 9 16 14 19 16 18 21 25 22 26 21 28 27 27 20 22 19 16 13 15 16 15 16 17 19 16 14 12
19 20 20 21 22 22 22 22 22 22 21 20 19 17 14 16 11 11 14 13 5 13 19 23 26 28 27 31 28 27 28 27 25 16 13 15 14 17 16 14 10 14 16 15 14
21 22 23 23 24 24 24 26 26 24 23 22 20 16 14 16 23 22 7 9 10 13 20 22 27 28 31 27 28 33 27 22 24 25 15 16 21 20 18 13 11 5 9 8 10
23 23 23 24 24 24 23 23 25 25 24 22 19 14 12 27 21 23 20 17 17 16 20 22 20 26 25 31 30 23 27 26 19 19 19 19 20 18 18 14 14 11 13 15 15
20 21 24 24 24 24 24 25 26 24 26 22 20 12 15 30 15 22 16 17 19 23 23 23 24 22 29 27 27 21 25 22 27 20 23 19 22 25 18 14 15 16 18 18 19
22 23 24 25 25 26 27 28 28 26 24 19 8 11 12 15 13 25 24 29 22 18 23 26 22 26 24 22 13 27 24 24 23 29 23 21 23 24 21 21 20 19 17 17 18
23 23 24 26 26 26 28 30 31 25 16 14 11 10 15 3 10 10 14 21 23 24 17 16 27 23 21 24 23 18 26 33 26 27 23 25 16 21 20 25 22 21 19 15 15
24 25 25 26 27 27 28 33 28 9 14 16 3 6 14 13 12 4 5 12 14 21 25 17 16 21 23 22 28 30 28 24 26 24 26 26 25 18 22 16 22 20 18 18 17
26 27 27 28 27 26 22 18 14 4 8 17 20 19 23 12 13 21 21 13 14 18 27 26 19 26 37 35 25 24 24 27 20 23 20 24 21 23 13 16 19 19 19 18 19
28 28 28 28 28 26 16 9 12 9 17 19 25 25 23 10 12 11 14 10 11 17 20 26 27 30 29 32 32 31 28 25 24 18 21 21 24 22 19 14 16 18 17 19 18
27 28 29 30 28 15 12 11 9 10 9 14 13 7 6 6 5 19 11 18 14 20 20 25 31 30 29 29 33 29 30 21 21 16 17 20 23 25 23 19 14 13 19 18 17
28 29 29 28 15 13 7 13 9 6 6 8 4 2 6 6 8 18 3 14 19 24 20 23 29 26 33 30 28 27 28 25 18 20 15 23 15 24 22 21 18 16 15 18 19
29 29 29 18 13 8 14 10 9 2 7 9 8 10 19 15 24 3 6 1 15 25 21 18 26 29 32 34 30 23 24 25 19 22 16 20 15 22 22 24 23 19 18 17 18
30 31 24 8 12 12 13 9 0 5 7 14 14 21 23 23 4 9 8 8 5 11 26 26 20 25 22 31 30 25 21 24 17 16 14 21 20 19 24 26 22 21 20 17 18
33 31 19 9 9 13 9 4 7 10 20 15 25 28 21 16 12 11 10 8 7 7 21 24 25 23 21 23 31 25 21 17 15 14 17 20 17 17 23 23 21 23 22 21 15
35 32 7 9 14 10 9 5 11 21 19 24 22 26 2 12 15 10 15 11 18 16 10 19 21 24 17 20 20 27 24 17 29 24 20 25 13 13 15 12 18 23 18 13 13
33 4 8 11 12 7 11 6 9 15 19 15 23 14 16 17 15 9 9 4 4 15 8 15 20 25 23 14 26 33 27 29 21 20 17 18 15 15 11 13 14 18 17 11 11
12 8 3 15 11 9 7 4 10 9 16 13 6 11 18 19 15 16 11 6 6 8 4 9 15 27 23 22 21 26 26 28 21 22 21 22 22 14 15 16 16 15 13 10 11
9 6 11 17 9 9 4 7 17 19 20 3 9 7 10 13 10 9 3 4 4 7 12 6 8 19 23 20 24 17 21 24 23 13 19 15 19 15 24 21 19 16 16 16 15
8 7 9 13 8 7 10 13 16 18 20 7 6 5 5 10 7 10 7 1 7 10 3 5 7 15 28 23 27 24 28 31 13 24 15 12 7 3 26 21 20 19 21 22 22
10 7 6 7 7 10 11 16 15 20 21 8 8 4 2 7 9 11 10 12 4 11 3 6 5 12 21 4 11 19 27 25 23 15 20 11 9 16 22 19 16 19 20 19 19
8 7 6 8 4 13 16 13 18 17 17 15 14 11 8 11 6 10 12 9 20 9 14 8 7 18 17 22 24 28 21 22 21 15 8 9 18 16 19 17 18 18 21 21 20
7 6 4 9 10 16 12 13 23 16 9 16 7 15 21 7 11 5 13 12 10 3 6 4 10 13 5 12 22 23 28 28 26 13 15 25 21 21 23 18 21 21 23 23 21
9 7 7 14 12 13 6 17 18 25 18 10 9 25 19 10 10 20 19 13 6 7 2 8 7 15 7 14 24 23 26 25 21 15 9 19 22 22 21 19 19 19 21 22 21
4 5 4 13 14 11 14 17 21 20 10 20 23 20 20 18 23 24 21 19 15 6 7 6 6 5 10 22 27 26 23 22 12 9 8 12 18 24 22 20 18 20 21 22 21
Wind_Direction
351 347 343 339 336 332 328 326 322 318 317 316 314 313 313 311 302 276 263 245 256 224 224 265 205 213 224 236 230 222 240 238 238 240 244 248 201 227 235 251 239 233 231 85 115
346 343 340 336 331 327 325 321 317 315 312 308 306 308 312 312 297 281 264 238 227 195 217 240 229 210 211 218 222 225 229 236 240 244 249 239 214 216 205 221 224 222 204 118 142
344 341 336 332 328 324 319 314 309 307 304 303 305 306 308 307 294 281 24 314 177 178 237 241 239 216 219 219 215 218 236 232 245 257 262 219 224 230 204 220 213 204 208 177 176
341 339 336 332 326 322 317 314 311 306 301 301 301 299 310 291 272 61 64 50 129 231 230 230 230 224 222 220 215 222 229 247 263 238 256 244 249 233 223 235 246 196 211 172 185
339 337 335 332 327 322 317 313 308 302 300 297 294 292 284 246 245 264 137 159 197 208 218 220 220 226 221 227 218 223 231 236 234 255 224 234 246 243 234 208 239 213 214 217 216
337 335 331 326 320 315 309 303 298 299 297 294 285 270 245 260 263 273 275 235 244 235 227 231 226 226 238 229 231 220 229 237 251 236 236 234 239 236 237 219 228 203 214 225 222
332 329 327 326 320 313 308 304 297 296 295 287 277 251 243 246 268 278 264 245 248 247 250 231 239 224 226 226 239 231 234 232 233 228 237 228 239 232 224 213 206 226 228 233 224
332 329 327 324 319 315 314 306 298 295 291 287 267 223 249 257 271 251 264 276 267 239 238 254 240 249 232 240 224 232 237 230 215 225 221 222 240 223 224 220 216 224 219 216 225
331 327 324 321 318 315 311 302 292 284 269 256 216 205 265 148 236 250 233 259 245 256 265 245 245 237 236 230 219 212 220 224 227 207 215 210 225 246 214 213 221 216 219 212 216
329 327 324 318 316 315 310 294 274 231 231 234 236 228 220 303 300 230 281 284 227 226 240 229 229 224 226 217 214 205 215 220 217 204 206 218 225 256 203 215 207 218 212 215 215
330 329 322 320 318 314 312 302 5 218 226 291 267 255 290 297 283 260 269 6 249 222 211 215 216 209 214 221 227 227 223 219 210 222 197 222 223 219 204 229 199 209 210 209 211
328 326 324 322 318 312 294 341 0 321 296 284 261 258 260 294 287 285 243 155 217 213 227 209 223 225 219 217 227 232 239 213 218 196 185 212 226 208 209 215 198 202 196 198 199
328 325 326 322 318 291 304 12 348 4 285 300 235 266 261 279 316 285 221 214 202 229 219 208 215 226 234 223 215 218 228 232 195 175 205 224 221 223 215 193 201 211 198 199 199
328 325 325 327 286 330 345 350 34 45 279 67 244 315 246 266 276 246 266 245 229 242 195 231 205 214 227 232 220 211 219 233 183 182 203 222 216 211 204 211 213 202 209 189 193
327 325 324 320 303 321 338 345 35 266 294 14 32 327 293 257 263 138 188 31 255 250 246 220 229 213 198 219 222 220 204 222 201 205 201 201 244 193 201 207 202 202 202 191 185
326 323 326 293 259 344 326 331 153 235 348 344 340 319 313 322 70 130 179 192 15 269 255 248 241 228 229 197 226 216 207 206 214 214 206 207 214 225 185 201 186 192 197 188 178
326 322 313 304 318 321 326 258 276 346 352 348 325 329 315 307 313 201 200 168 177 176 231 233 233 247 219 193 204 212 199 188 193 194 207 187 202 251 174 186 177 185 187 184 152
327 313 252 257 331 328 288 267 306 4 355 333 326 310 172 7 335 321 279 270 209 217 214 216 215 222 203 207 193 196 179 199 179 194 194 185 210 203 62 90 195 179 141 135 166
318 291 259 359 335 302 275 312 8 343 337 324 317 331 349 355 337 303 288 248 193 218 214 216 212 182 243 184 214 184 200 210 198 200 197 181 144 77 123 102 86 99 115 161 155
320 298 323 344 316 291 334 346 339 331 341 329 298 332 328 343 328 332 322 63 350 256 223 299 232 181 191 177 219 191 206 201 226 195 221 187 161 151 162 149 118 114 118 140 143
272 284 26 328 269 320 41 324 322 330 337 287 291 287 301 326 302 289 346 20 336 302 244 323 257 212 185 199 192 194 192 218 227 233 205 184 172 154 160 154 140 133 142 150 126
285 332 20 319 32 1 7 333 307 326 338 343 283 275 282 309 289 291 359 229 310 330 249 231 266 199 190 177 222 195 203 209 210 228 254 166 72 170 132 134 137 142 157 136 141
314 299 95 5 22 2 347 306 346 341 337 346 299 268 252 293 302 299 313 337 250 334 203 219 220 196 194 189 272 245 198 207 223 239 220 172 125 87 110 127 139 136 128 129 120
311 342 349 301 12 0 330 335 335 345 325 334 297 316 304 298 281 285 300 320 321 292 245 242 260 205 187 190 182 214 200 200 206 239 216 184 131 120 121 130 129 131 130 127 122
18 23 45 320 340 308 352 316 340 339 324 310 282 327 325 297 300 257 315 310 305 344 357 123 234 185 83 227 196 198 201 194 217 213 219 139 145 144 134 135 134 135 134 131 129
343 352 337 286 284 311 355 350 328 331 329 307 293 319 316 301 292 299 303 306 283 317 289 203 248 142 201 258 235 198 212 186 190 208 72 161 132 138 128 134 139 140 138 130 127
26 303 292 293 337 340 355 330 331 322 321 320 327 316 319 319 307 293 282 273 258 281 312 308 190 106 195 212 182 196 197 192 117 225 145 168 131 133 132 136 144 142 137 127 119